星链-11424 (STARLINK-11424)

导读

STARLINK-11424是美国太空探索技术公司(SpaceX)星链星座的一员,于2024年11月14日发射入轨。星链项目旨在构建全球卫星互联网星座,该卫星承担着为全球偏远区域、海洋空域等地面网络覆盖盲区提供高速低延迟网络接入的任务,进一步扩充了星链星座的服务覆盖范围与通信容量。

基本信息
目录编号:
61949
目录名称:
STARLINK-11424
国际标识:
2024-209L
轨道中心:
EARTH
卫星名称:
星链-11424
卫星全名:
星链-11424 (STARLINK-11424)
卫星状态:
在轨 (已飞行666 天)
发射日期:
2024-11-14 UTC
国别 :
美国 (US)
星等 :
--
该卫星已列入 空间交会检测服务 Space Conjunction Data Service (SCDS) ,当前飞行风险评估等级: 无高风险
轨道信息
数据来源 国际轨道数据
星历时间: 2026-09-11T06:20:08+0800
12小时前
查看轨道信息
半长轴: 6737.518km
偏心率: 0.0001508
轨道倾角: 53.156°
近地点辐角 55.138°
升交点赤经 177.976°
平近点角 304.978°
近地点: 358.364km
远地点: 360.398km
周期: 91.730分钟
每日圈数: 15.69831
详细信息
固有亮度:
5
最大亮度:
2.5
卫星平台:
Starlink V1.0
覆盖范围:
全球
运营商:
太空探索技术公司
运营商所在国:
美国
制造商(研发单位):
太空探索技术公司
制造商所在国:
美国
使用方式:
暂无
卫星简介
Starlink 计划是 SpaceX 推出的全球卫星互联网项目,通过发射低轨道卫星,为全球尤其是偏远地区提供高速、低延迟的互联网服务。自 2019 年起,Starlink 已部署数千颗卫星,旨在缩小全球数字鸿沟,推动互联网普及。该项目还为军事、航空等行业提供通信支持,带来广泛经济效益。
2D轨道图
3D轨道图
轨道高度分析图
轨道倾角分析图
轨道综合分析图
查看轨道综合分析图
交会数据列表
事件ID 空间交会对象 最接近时刻(TCA) 交会距离 交会风险概率(CRP) 交会风险指数(CRI) 操作
CDM_260911-214406-040306-194921
2026-09-11T
21:44:23+0000
0.817 km
远距离
3.333011E-5 中风险 0.65
CDM_260912-013306-040306-194921
2026-09-12T
01:33:34+0000
1.427 km
极远距离
4.992356E-6 低风险 0.49
CDM_260910-181406-040306-194922
2026-09-10T
18:14:04+0000
2.379 km
极远距离
1.291531E-6 低风险 0.37
与全量物体交会距离演化趋势
与全量物体交会风险概率演化趋势